Flag for Belarus Weather past 2 weeks in Gomel, Belarus

Now
82 °F

Scattered clouds.


Feels Like: 81 °F
Forecast: 63 / 85 °F
Wind: 10 mph from Northeast

Location: Gomel'

Current Time: Jul 25, 2014 at 4:46:20 PM

Latest Report: Jul 25, 2014 at 4:00 PM


Visibility: N/A

Pressure: 30.07 "Hg

Humidity: 37%

Dew point: 54 °F

Location of GomelLocation

Historic Weather in Gomel — Graph

°F

Gomel temperature yesterday

Maximum temperature yesterday: 82 °F (at 2:00 PM)
Minimum temperature yesterday: 55 °F (at 4:00 AM)
Average temperature yesterday: 73 °F

Past Weeks' High & Low Weather Summary

 TemperatureHumidityPressure
High88 °F (Jul 16, 4:00 PM)100% (Jul 12, 1:00 AM)30.12 "Hg (Jul 12, 1:00 AM)
Low55 °F (Jul 24, 4:00 AM)26% (Jul 24, 1:00 PM)29.77 "Hg (Jul 12, 3:00 PM)
Average71 °F72%29.98 "Hg
* Reported Jul 10 3:00 PM — Jul 25 3:30 PM, Gomel, Weather by CustomWeather, © 2014

Note: Actual official high and low records may vary slightly from our data, if they occured in-between our weather recording intervals... More about our weather records

Advertising

Gomel weather history for previous 24 hours

 ConditionsComfort  
Time TempWeatherWind HumidityBarometerVisibility
3:30 PM
Jul 25
84 °FScattered clouds.10 mph37%30.07 "HgN/A
3:00 PM84 °FScattered clouds.13 mph37%30.09 "HgN/A
2:30 PM82 °FScattered clouds.10 mph40%30.09 "HgN/A
2:00 PM82 °FScattered clouds.10 mph40%30.09 "HgN/A
1:30 PM82 °FScattered clouds.13 mph40%30.09 "HgN/A
1:00 PM82 °FScattered clouds.13 mph40%30.09 "HgN/A
12:30 PM81 °FPassing clouds.13 mph45%30.09 "HgN/A
12:00 PM81 °FPassing clouds.13 mph45%30.07 "HgN/A
11:30 AM77 °FSunny.13 mph54%30.07 "Hg10 mi
11:00 AM77 °FSunny.13 mph54%30.07 "Hg10 mi
10:30 AM73 °FSunny.6 mph61%30.07 "Hg10 mi
10:00 AM73 °FSunny.8 mph61%30.09 "Hg10 mi
9:30 AM70 °FSunny.6 mph69%30.07 "Hg10 mi
9:00 AM70 °FSunny.8 mph69%30.07 "Hg10 mi
8:30 AM66 °FSunny.3 mph83%30.07 "Hg10 mi
8:00 AM66 °FSunny.3 mph83%30.07 "Hg10 mi
7:30 AM61 °FSunny.3 mph88%30.07 "Hg10 mi
7:00 AM61 °FSunny.3 mph88%30.04 "Hg10 mi
6:30 AM59 °FSunny.1 mph88%30.04 "Hg10 mi
5:30 AM59 °FClear.1 mph88%30.04 "Hg10 mi
5:00 AM59 °FClear.1 mph88%30.04 "Hg10 mi
4:30 AM61 °FClear.1 mph88%30.04 "Hg10 mi
4:00 AM61 °FClear.1 mph88%30.04 "Hg10 mi
3:00 AM61 °FClear.1 mph88%30.04 "Hg10 mi
2:00 AM63 °FClear.1 mph83%30.04 "Hg10 mi
1:00 AM64 °FClear.1 mph78%30.01 "Hg10 mi
12:00 AM66 °FClear.1 mph73%30.01 "Hg10 mi
11:00 PM
Jul 24
70 °FClear.1 mph64%30.01 "Hg10 mi
10:00 PM72 °FSunny.3 mph57%30.01 "Hg10 mi
9:00 PM75 °FSunny.3 mph50%30.01 "Hg10 mi
8:00 PM79 °FSunny.3 mph42%30.01 "Hg10 mi
7:30 PM81 °FSunny.3 mph34%30.01 "Hg10 mi
7:00 PM81 °FSunny.6 mph34%30.01 "Hg10 mi
6:30 PM82 °FSunny.6 mph30%30.01 "Hg10 mi
6:00 PM82 °FSunny.8 mph30%30.01 "Hg10 mi
5:30 PM82 °FSunny.8 mph28%30.01 "Hg10 mi
5:00 PM82 °FSunny.10 mph28%30.01 "Hg10 mi
4:30 PM81 °FSunny.10 mph30%30.01 "Hg10 mi
4:00 PM81 °FSunny.13 mph30%30.04 "Hg10 mi
Weather by CustomWeather, © 2014

See weather overviewHow to use our weather pages